User: anonymous   Login
Location: Unspecified
(40.7945°N, 111.1337°W)
Time: 15:06:13
(UTC-06:00)
Language:

Tiros 1 despin weight - Orbit

View from above orbital plane
View from above orbital plane
View from above satellite
View from above satellite

Ground track
Ground track

The orbit data is extracted from the following two-line orbital elements,

1   115U 60002D   19168.13077586 -.00000118  00000-0  13181-4 0  9996
2   115  48.1659 235.5440 0033676  74.2948 286.1676 14.83448613158589
Epoch (UTC): 17 June 2019 03:08:19
Eccentricity: 0.0033676
inclination: 48.1659°
perigee height: 595 km
apogee height: 642 km
right ascension of ascending node: 235.5440°
argument of perigee: 74.2948°
revolutions per day: 14.83448613
mean anomaly at epoch: 286.1676°
orbit number at epoch: 15858

The dashed part of the orbit path shows where the satellite is in the earth's shadow,  

DLR